Regional Weather Roundup
Issued by NWS Northern Indiana

Home | Current Version | Previous Version | Text Only | Print | Product List | Glossary On
Versions: 1 2 3 4 5 6 7 8 9 10 11 12 13 14 15 16 17 18 19 20 21 22 23 24 25 26 27 28 29 30 31 32 33 34 35 36 37 38 39 40 41 42 43 44 45 46 47 48 49 50
055
ASUS43 KIWX 262310
RWRIWX

KIWX WEATHER ROUNDUP
NATIONAL WEATHER SERVICE NORTHERN INDIANA
700 PM EDT WED APR 26 2017

NOTE: "FAIR" INDICATES FEW OR NO CLOUDS BELOW 12,000 FEET WITH NO
SIGNIFICANT WEATHER AND/OR OBSTRUCTIONS TO VISIBILITY.

* THESE STATIONS ARE NOT UNDER NWS QUALITY CONTROL. THEY ALSO MAY NOT
  REPORT WEATHER SUCH AS PRECIPITATION OR FOG.

INZ001>027-270000-
NORTHERN INDIANA

CITY           SKY/WX    TMP DP  RH WIND       PRES   REMARKS
GARY*          PTSUNNY   77  50  38 SW14      29.49S
VALPARAISO     CLOUDY    77  55  46 SW13      29.50S
MICHIGAN CITY* CLOUDY    73  54  49 SW8       29.50S
LAPORTE*       CLOUDY    75  55  50 SW7       29.50F
KNOX*          PTSUNNY   77  25  14 SW13      29.49S
SOUTH BEND     PTSUNNY   75  55  49 W10       29.51R
ELKHART*       PTSUNNY   77  55  47 W6        29.50S
GOSHEN         PTSUNNY   78  53  41 SW10      29.50R
MONTICELLO*    MOSUNNY   77  53  42 W12G20    29.50R
LOGANSPORT*    CLOUDY    75  55  50 W14       29.51R
ROCHESTER*     MOSUNNY   81  52  36 SW12      29.50F
WARSAW*        MOSUNNY   79  52  38 SW8G16    29.51S
ANGOLA*        PTSUNNY   81  73  78 SW8       29.51S
FORT WAYNE     PTSUNNY   80  59  48 SW14      29.52R
HUNTINGTON*    PTSUNNY  N/A N/A N/A SW7       29.51S
PERU/GRISSOM   CLOUDY    78  57  47 SW13      29.49F
MARION*        PTSUNNY   81  55  41 SW8       29.51F

$$
INZ028>050-270000-
CENTRAL INDIANA

CITY           SKY/WX    TMP DP  RH WIND       PRES   REMARKS
LAFAYETTE      LGT RAIN  73  55  53 W14G22    29.51R
KOKOMO*        CLOUDY    79  57  46 SW10      29.52S
MUNCIE*        MOSUNNY   82  59  45 S16G24    29.52S
INDIANAPOLIS   PTSUNNY   80  59  48 S20       29.48F

$$
MIZ043>046-050>051-056>058-064>065-071>073-077>080-270000-
SOUTHWEST LOWER MICHIGAN

CITY           SKY/WX    TMP DP  RH WIND       PRES   REMARKS
BATTLE CREEK   PTSUNNY   76  57  51 W13       29.52R
BENTON HARBOR  PTSUNNY   68  53  58 W9        29.50R
COLDWATER*     PTSUNNY   78  55  44 SW15      29.51R
HILLSDALE*     MOSUNNY   77  55  47 SW9G16    29.52S
HOLLAND        MOSUNNY   70  56  61 W9        29.51R
GRAND RAPIDS   PTSUNNY   75  57  53 W10       29.51R
KALAMAZOO      CLOUDY    76  54  46 W9        29.51R
STURGIS*       PTSUNNY   78  56  46 SW13      29.50S
THREE RIVERS*  CLOUDY    74  56  52 NW6       29.51R

$$
OHZ001>008-015>018-024>025-270000-
NORTHWEST OHIO

CITY           SKY/WX    TMP DP  RH WIND       PRES   REMARKS
WAUSEON*       FAIR      82  59  44 S17       29.52S
DEFIANCE       PTSUNNY   79  58  48 S13       29.52R
FINDLAY        SUNNY     83  54  36 S20G26    29.55R
TOLEDO EXPRESS MOSUNNY   82  56  40 SW13G22   29.53R
TOLEDO METCALF SUNNY     83  56  39 SW8       29.54R
LIMA           SUNNY     81  57  43 S14       29.56R

$$
AND FOR LAKE MICHIGAN COASTAL AND OPEN LAKE BUOY OBSERVATIONS

STATION/POSITION TEMP    WIND        PRES    VSBY  WAVE
                 AIR SEA DIR/SP/G                  HT/PER
                 (F)     (DEG/KT/KT) (MB)    (MI)  (FT/S)
CALUMET HARBOR    74     210/  6/ 15  997.8F
MICHIGAN CITY     65     230/ 11/ 12   N/A
BURNS HARBOR      73     230/  9/ 19  999.0S
SOUTH LAKE BUOY   50 42  170/  8/ 10  998.7          1/ 4
4 MI NW BRIDGMAN  59 49  220/  4/  8  998.9          1/ 3
MICHIGAN CITY     58 49                N/A           1/ 3

$$
&&




USA.gov is the U.S. government's official web portal to all federal, state and local government web resources and services.